Weather History for Puerto Barrios, Guatemala

Change the Weather History Date:

Wednesday, October 17, 2012

  Actual Average Record
Temperature  
Mean Temperature 79 °F -  
Max Temperature 88 °F 82 °F 95 °F (2006)
Min Temperature 70 °F 70 °F 69 °F (2008)
Cooling Degree Days 14    
Growing Degree Days 29 (Base 50)    
Moisture  
Dew Point 74 °F    
Average Humidity 83    
Maximum Humidity 94    
Minimum Humidity 66    
Precipitation  
Precipitation 0.00 in - - ()
Sea Level Pressure  
Sea Level Pressure 29.83 in    
Wind  
Wind Speed 2 mph ()    
Max Wind Speed 9 mph    
Max Gust Speed -    
Visibility 6.2 miles    
Events      
Averages and records for this station are not official NWS values.
T = Trace of Precipitation, MM = Missing Value Source: Averaged Metar Reports

Daily Weather History Graph

Daily Weather History Graph

Search for Another Location

Airport:

Trip Planner

Search our weather history database for the weather conditions in past years. The results will help you decide how hot, cold, wet, or windy it might be!

Date:

Astronomy

Oct. 17, 2012 Rise Set
Actual Time 5:46 AM CST 5:31 PM CST
Civil Twilight 5:25 AM CST 5:53 PM CST
Nautical Twilight 4:59 AM CST 6:18 PM CST
Astronomical Twilight 4:34 AM CST 6:43 PM CST
Moon 7:54 AM CST (10/17) 7:36 PM CST (10/17)
Length of Visible Light 12h 28m
Length of Day
11h 45m
Waxing Crescent, 7% of the Moon is Illuminated
Oct 17
Waxing Crescent
Oct 21
First Quarter
Oct 29
Full
Nov 6
Last Quarter
Nov 13
New

Hourly Weather History & Observations

Time (CST) Temp. Heat Index Dew Point Humidity Pressure Visibility Wind Dir Wind Speed Gust Speed Precip Events Conditions
12:00 AM 73.4 °F - 71.6 °F 94% 29.86 in - Calm Calm - N/A   Clear
1:00 AM 73.4 °F - 71.6 °F 94% 29.83 in - Calm Calm - N/A   Clear
2:00 AM 73.4 °F - 71.6 °F 94% 29.83 in - Calm Calm - N/A   Clear
3:00 AM 71.6 °F - 69.8 °F 94% 29.83 in - Calm Calm - N/A   Clear
4:00 AM 71.6 °F - 69.8 °F 94% 29.83 in - Calm Calm - N/A   Clear
5:00 AM 71.6 °F - 69.8 °F 94% 29.83 in - Calm Calm - N/A   Clear
6:00 AM 72 °F - 70 °F 91% 29.87 in 25 mi Calm Calm - -   Partly Cloudy
6:00 AM 71.6 °F - 69.8 °F 94% 29.86 in - Calm Calm - N/A   Clear
7:00 AM 73.4 °F - 71.6 °F 94% 29.86 in - Calm Calm - N/A   Clear
8:00 AM 80.6 °F 86.2 °F 75.2 °F 84% 29.89 in - Calm Calm - N/A   Clear
9:00 AM 84.2 °F 94.1 °F 77.0 °F 79% 29.89 in - Calm Calm - N/A   Clear
10:00 AM 87.8 °F 99.7 °F 77.0 °F 70% 29.89 in 6.2 mi North 4.6 mph - N/A   Partly Cloudy
11:00 AM 86.0 °F 96.9 °F 77.0 °F 74% 29.89 in 6.2 mi North 4.6 mph - N/A   Scattered Clouds
12:00 PM 87 °F - 77 °F 66% 29.85 in 25 mi North 4.6 mph - -   Scattered Clouds
12:00 PM 87.8 °F 99.7 °F 77.0 °F 70% 29.83 in 6.2 mi North 4.6 mph - N/A   Scattered Clouds
1:00 PM 87.8 °F 99.7 °F 77.0 °F 70% 29.80 in 6.2 mi North 9.2 mph - N/A   Partly Cloudy
2:00 PM 87.8 °F 99.7 °F 77.0 °F 70% 29.77 in 6.2 mi North 9.2 mph - N/A   Scattered Clouds
3:00 PM 87.8 °F 99.7 °F 77.0 °F 70% 29.77 in 6.2 mi North 9.2 mph - N/A   Scattered Clouds
4:00 PM 87.8 °F 97.6 °F 75.2 °F 66% 29.74 in 6.2 mi NNE 6.9 mph - N/A   Scattered Clouds
5:00 PM 84.2 °F 90.9 °F 73.4 °F 70% 29.77 in - East 4.6 mph - N/A   Clear
6:00 PM 82 °F - 74 °F 71% 29.79 in 25 mi ENE 4.6 mph - -   Clear
6:00 PM 82.4 °F 88.2 °F 73.4 °F 74% 29.77 in - ENE 4.6 mph - N/A   Clear
7:00 PM 78.8 °F - 73.4 °F 83% 29.80 in - Calm Calm - N/A   Clear
8:00 PM 77.0 °F - 75.2 °F 94% 29.89 in - Calm Calm - N/A   Clear
9:00 PM 77.0 °F - 75.2 °F 94% 29.86 in - Calm Calm - N/A   Clear
10:00 PM 77.0 °F - 75.2 °F 94% 29.86 in - Calm Calm - N/A   Clear
11:00 PM 75.2 °F - 73.4 °F 94% 29.86 in - Calm Calm - N/A   Clear